This demonstration page uses our WeatherBlox Daily Observations layout. Learn more.

Hourly Observations for November 8, 2019

Temp ( °F °C ) Dew Point ( °F °C ) Humidity (%) Winds ( mph kmh ) Pressure ( in mb ) Visibility ( mi km ) Precip ( " mm )
12:15 am 00:15 Partly Cloudy 41 5 34 1 76 76 NNW 20 31 30.15 1021 10 16.09344 0 0
12:35 am 00:35 Clear 41 5 34 1 76 76 NNW 15 24 30.18 1022 10 16.09344 0 0
12:55 am 00:55 Partly Cloudy 41 5 34 1 76 76 N 9 15 30.18 1022 10 16.09344 0 0
1:15 am 01:15 Clear 41 5 32 0 70 70 N 8 13 30.18 1022 10 16.09344 0 0
1:35 am 01:35 Clear 39 4 32 0 75 75 N 3 6 30.18 1022 10 16.09344 0 0
1:55 am 01:55 Clear 39 4 32 0 75 75 N 7 11 30.18 1022 10 16.09344 0 0
2:15 am 02:15 Mostly Cloudy 39 4 32 0 75 75 N 9 15 30.18 1022 10 16.09344 0 0
2:35 am 02:35 Cloudy 39 4 32 0 75 75 N 9 15 30.18 1022 10 16.09344 0 0
2:55 am 02:55 Cloudy 39 4 32 0 75 75 N 16 26 30.18 1022 10 16.09344 0 0
3:15 am 03:15 Cloudy 37 3 30 -1 75 75 N 15 24 30.18 1022 10 16.09344 0 0
3:35 am 03:35 Cloudy 37 3 30 -1 75 75 N 15 24 30.18 1022 10 16.09344 0 0
3:55 am 03:55 Cloudy 37 3 30 -1 75 75 N 14 22 30.18 1022 10 16.09344 0 0
4:15 am 04:15 Mostly Cloudy 37 3 28 -2 70 70 N 15 24 30.21 1023 10 16.09344 0 0
4:35 am 04:35 Mostly Cloudy 36 2 28 -2 75 75 NNW 13 20 30.21 1023 10 16.09344 0 0
4:55 am 04:55 Partly Cloudy 36 2 23 -5 60 60 NNW 17 28 30.21 1023 10 16.09344 0 0
5:15 am 05:15 Clear 34 1 23 -5 65 65 NNW 20 31 30.24 1024 10 16.09344 0 0
5:35 am 05:35 Clear 34 1 23 -5 65 65 NW 20 31 30.24 1024 10 16.09344 0 0
5:55 am 05:55 Clear 34 1 23 -5 65 65 NW 17 28 30.27 1025 10 16.09344 0 0
6:15 am 06:15 Mostly Cloudy 34 1 23 -5 65 65 NW 13 20 30.27 1025 10 16.09344 0 0
6:35 am 06:35 Mostly Cloudy 34 1 23 -5 65 65 NW 9 15 30.27 1025 10 16.09344 0 0
6:55 am 06:55 Cloudy 34 1 23 -5 65 65 NNW 9 15 30.27 1025 10 16.09344 0 0
7:15 am 07:15 Cloudy 34 1 23 -5 65 65 NW 13 20 30.3 1026 10 16.09344 0 0
7:35 am 07:35 Cloudy 36 2 23 -5 60 60 NNW 12 19 30.3 1026 10 16.09344 0 0
7:55 am 07:55 Mostly Cloudy 36 2 23 -5 60 60 NNW 13 20 30.3 1026 10 16.09344 0 0
8:15 am 08:15 Partly Cloudy 36 2 23 -5 60 60 NNW 16 26 30.33 1027 10 16.09344 0 0
8:35 am 08:35 Cloudy 36 2 23 -5 60 60 NNW 17 28 30.33 1027 10 16.09344 0 0
9:15 am 09:15 Partly Cloudy 36 2 23 -5 60 60 N 20 31 30.33 1027 10 16.09344 0 0
9:35 am 09:35 Mostly Cloudy 36 2 23 -5 60 60 NNW 14 22 30.33 1027 10 16.09344 0 0
9:55 am 09:55 Cloudy 36 2 25 -4 65 65 NW 13 20 30.33 1027 10 16.09344 0 0
10:15 am 10:15 Cloudy 37 3 23 -5 56 56 N 16 26 30.33 1027 10 16.09344 0 0
10:35 am 10:35 Cloudy 37 3 23 -5 56 56 NNW 17 28 30.33 1027 10 16.09344 0 0
10:55 am 10:55 Cloudy 37 3 23 -5 56 56 N 12 19 30.33 1027 10 16.09344 0 0
11:15 am 11:15 Cloudy 36 2 23 -5 60 60 NNW 10 17 30.33 1027 10 16.09344 0 0
11:35 am 11:35 Cloudy 37 3 23 -5 56 56 NNW 13 20 30.33 1027 10 16.09344 0 0
11:55 am 11:55 Cloudy 37 3 23 -5 56 56 N 10 17 30.33 1027 10 16.09344 0 0
12:15 pm 12:15 Cloudy 37 3 23 -5 56 56 NNW 10 17 30.33 1027 10 16.09344 0 0
12:35 pm 12:35 Cloudy 39 4 23 -5 52 52 NNW 14 22 30.3 1026 10 16.09344 0 0
12:55 pm 12:55 Cloudy 41 5 25 -4 53 53 NNW 16 26 30.3 1026 10 16.09344 0 0
1:15 pm 13:15 Cloudy 41 5 23 -5 49 49 N 12 19 30.3 1026 10 16.09344 0 0
1:35 pm 13:35 Cloudy 37 3 23 -5 56 56 NNW 16 26 30.3 1026 10 16.09344 0 0
1:55 pm 13:55 Cloudy 37 3 23 -5 56 56 NNW 14 22 30.3 1026 10 16.09344 0 0
2:15 pm 14:15 Cloudy 37 3 23 -5 56 56 NNW 14 22 30.3 1026 10 16.09344 0 0
2:35 pm 14:35 Cloudy 37 3 23 -5 56 56 NNW 10 17 30.3 1026 10 16.09344 0 0
2:55 pm 14:55 Cloudy 37 3 23 -5 56 56 N 9 15 30.3 1026 10 16.09344 0 0
3:15 pm 15:15 Mostly Cloudy 37 3 23 -5 56 56 N 13 20 30.33 1027 10 16.09344 0 0
3:35 pm 15:35 Partly Cloudy 37 3 23 -5 56 56 NNW 9 15 30.33 1027 10 16.09344 0 0
4:55 pm 16:55 Sunny 36 2 23 -5 60 60 NW 7 11 30.33 1027 10 16.09344 0 0
5:15 pm 17:15 Partly Cloudy 36 2 23 -5 60 60 NW 8 13 30.36 1028 10 16.09344 0 0
5:35 pm 17:35 Mostly Cloudy 36 2 23 -5 60 60 WNW 8 13 30.36 1028 10 16.09344 0 0
5:55 pm 17:55 Cloudy 34 1 23 -5 65 65 WNW 7 11 30.36 1028 10 16.09344 0 0
6:15 pm 18:15 Partly Cloudy 34 1 23 -5 65 65 WNW 7 11 30.36 1028 10 16.09344 0 0
6:35 pm 18:35 Clear 34 1 23 -5 65 65 WNW 7 11 30.39 1029 10 16.09344 0 0
6:55 pm 18:55 Clear 34 1 23 -5 65 65 WNW 8 13 30.39 1029 10 16.09344 0 0
7:15 pm 19:15 Clear 34 1 23 -5 65 65 WNW 8 13 30.39 1029 10 16.09344 0 0
7:35 pm 19:35 Clear 34 1 21 -6 60 60 WNW 9 15 30.39 1029 10 16.09344 0 0
7:55 pm 19:55 Clear 34 1 21 -6 60 60 WNW 9 15 30.39 1029 10 16.09344 0 0
8:15 pm 20:15 Clear 34 1 21 -6 60 60 WNW 7 11 30.39 1029 10 16.09344 0 0
8:35 pm 20:35 Clear 32 0 21 -6 64 64 WNW 6 9 30.39 1029 10 16.09344 0 0
8:55 pm 20:55 Clear 32 0 21 -6 64 64 WNW 5 7 30.42 1030 10 16.09344 0 0
9:15 pm 21:15 Clear 32 0 21 -6 64 64 W 5 7 30.42 1030 10 16.09344 0 0
9:35 pm 21:35 Clear 32 0 23 -5 69 69 WNW 3 6 30.42 1030 10 16.09344 0 0
9:55 pm 21:55 Clear 32 0 21 -6 64 64 NW 6 9 30.42 1030 10 16.09344 0 0
10:15 pm 22:15 Clear 32 0 23 -5 69 69 NW 6 9 30.42 1030 10 16.09344 0 0
10:35 pm 22:35 Clear 32 0 23 -5 69 69 NW 6 9 30.42 1030 10 16.09344 0 0
10:55 pm 22:55 Clear 32 0 23 -5 69 69 NW 7 11 30.39 1029 10 16.09344 0 0
11:15 pm 23:15 Clear 32 0 23 -5 69 69 NW 6 9 30.39 1029 10 16.09344 0 0
11:35 pm 23:35 Clear 32 0 21 -6 64 64 NNW 3 6 30.39 1029 10 16.09344 0 0
11:55 pm 23:55 Clear 32 0 21 -6 64 64 NW 5 7 30.39 1029 10 16.09344 0 0

Powered by AerisWeather